Regional Weather Roundup
Issued by NWS Albany, NY

Home | Current Version | Previous Version | Text Only | Print | Product List | Glossary On
Versions: 1 2 3 4 5 6 7 8 9 10 11 12 13 14 15 16 17 18 19 20 21 22 23 24 25 26 27 28
000
ASUS41 KALY 200010
RWRALY

NEW YORK STATE HOURLY WEATHER ROUNDUP
NATIONAL WEATHER SERVICE ALBANY NY
700 PM EST THU JAN 19 2017

NOTE: "FAIR" INDICATES FEW OR NO CLOUDS BELOW 12,000 FEET WITH NO
SIGNIFICANT WEATHER AND/OR NO OBSTRUCTIONS TO VISIBILITY.

NYZ032-033-038>043-046>054-057>066-NYZ062>081-082-084-200100-
EAST


CITY           SKY/WX    TMP DP  RH WIND       PRES   REMARKS
ALBANY         MOCLDY    37  31  78 NW6       30.03S WCI  32
GLENS FALLS    CLOUDY    37  33  85 CALM      30.01F
POUGHKEEPSIE   CLOUDY    41  32  70 N5        30.03R
NEWBURGH       MOCLDY    41  36  81 CALM      30.04R
MONTGOMERY     CLOUDY    42  32  67 NW6       30.02R
WHITE PLAINS   MOCLDY    42  34  73 W6        30.01R
ISLIP          CLOUDY    44  35  70 W6        30.02R
NEW YORK CITY  MOCLDY    45  33  63 NW12      30.04R
CENTRAL PARK   CLOUDY    43  32  65 VRB7      30.06R
$$

NYZ005>009-017-018-044>046-055-056-200100-
CENTRAL


CITY           SKY/WX    TMP DP  RH WIND       PRES   REMARKS
FULTON         CLOUDY    36  34  92 SW3       30.07R
SYRACUSE       CLOUDY    35  33  92 W7        30.08R WCI  29
ROME           CLOUDY    34  34 100 W3        30.08R
ELMIRA         CLOUDY    38  32  79 CALM      30.04R
BINGHAMTON     CLOUDY    33  31  92 CALM      30.01S
MONTICELLO     CLOUDY    36  30  80 NW6       30.02R WCI  31
$$

NYZ026>034-041>043-087-200100-
NORTH


CITY           SKY/WX    TMP DP  RH WIND       PRES   REMARKS
WATERTOWN      CLOUDY    35  35 100 SW3       30.06R FOG
FORT DRUM      NOT AVBL
OGDENSBURG     CLOUDY    34  33  97 CALM      30.04R FOG
MASSENA        CLOUDY    34  33  96 S3        30.05R
SARANAC LAKE   CLOUDY    32  28  85 VRB3      29.96S
PLATTSBURGH    CLOUDY    36  29  75 N3        30.02R
$$

NYZ001>004-010>016-019>021-085-200100-
WEST


CITY           SKY/WX    TMP DP  RH WIND       PRES   REMARKS
NIAGARA FALLS  CLOUDY    35  32  88 CALM      30.02F FOG
BUFFALO        DRIZZLE   33  32  96 SW3       30.03F FOG
DUNKIRK        CLOUDY    34  33  96 CALM      30.03F FOG
JAMESTOWN      CLOUDY    36  30  80 CALM      29.97F
WELLSVILLE     CLOUDY    36  33  89 W3        30.00S
ROCHESTER      CLOUDY    36  33  89 NW6       30.06S WCI  31
PENN YAN       CLOUDY    35  31  85 CALM      30.05R
$$

             KEY
       WCI = WIND CHILL INDEX
       VSB = VISIBILITY
       HX  = HEAT INDEX
$$




USA.gov is the U.S. government's official web portal to all federal, state and local government web resources and services.